Weather History for Cape Girardeau, MO

Change the Weather History Date:

Friday, December 21, 2012

  Actual Average Record
Temperature  
Mean Temperature 34 °F 34 °F  
Max Temperature 44 °F 43 °F 68 °F (1967)
Min Temperature 24 °F 26 °F -7 °F (1989)
Degree Days  
Heating Degree Days 31 30  
Month to date heating degree days 362 587  
Since 1 July heating degree days 1301 1438  
Cooling Degree Days 0 0  
Month to date cooling degree days 0 0  
Year to date cooling degree days 1784 1453  
Moisture  
Dew Point 15 °F    
Average Humidity 49    
Maximum Humidity 69    
Minimum Humidity 29    
Precipitation  
Precipitation 0.00 in 0.13 in 4.12 in (2013)
Month to date precipitation 1.26 2.97  
Year to date precipitation 26.54 45.53  
Sea Level Pressure  
Sea Level Pressure 30.21 in    
Wind  
Wind Speed 12 mph (WNW)    
Max Wind Speed 26 mph    
Max Gust Speed 32 mph    
Visibility 10 miles    
Events      
T = Trace of Precipitation, MM = Missing Value Source: NWS Daily Summary

Daily Weather History Graph

Daily Weather History Graph

Search for Another Location

Airport:

Trip Planner

Search our weather history database for the weather conditions in past years. The results will help you decide how hot, cold, wet, or windy it might be!

Date:

Astronomy

Dec. 21, 2012 Rise Set
Actual Time 7:08 AM CST 4:44 PM CST
Civil Twilight 6:39 AM CST 5:13 PM CST
Nautical Twilight 6:06 AM CST 5:46 PM CST
Astronomical Twilight 5:35 AM CST 6:18 PM CST
Moon 12:26 PM CST (12/21) 1:01 AM CST (12/21)
Length of Visible Light 10h 34m
Length of Day
9h 36m
Waxing Gibbous, 65% of the Moon is Illuminated
Dec 21
Waxing Gibbous
Dec 28
Full
Jan 4
Last Quarter
Jan 11
New
Jan 18
First Quarter

Hourly Weather History & Observations

Time (CST) Temp. Windchill Dew Point Humidity Pressure Visibility Wind Dir Wind Speed Gust Speed Precip Events Conditions
12:53 AM 30.0 °F 18.7 °F 19.9 °F 66% 30.03 in 10.0 mi West 16.1 mph - N/A   Clear
1:53 AM 30.9 °F 19.4 °F 18.0 °F 59% 30.05 in 10.0 mi WNW 17.3 mph - N/A   Clear
2:53 AM 30.9 °F 19.4 °F 18.0 °F 59% 30.07 in 10.0 mi WNW 17.3 mph 27.6 mph N/A   Clear
3:53 AM 30.0 °F 18.3 °F 17.1 °F 59% 30.08 in 10.0 mi WNW 17.3 mph 25.3 mph N/A   Clear
4:53 AM 28.9 °F 17.3 °F 16.0 °F 58% 30.10 in 10.0 mi WNW 16.1 mph - N/A   Clear
5:53 AM 28.4 °F 18.0 °F 15.8 °F 59% 30.11 in 10.0 mi WNW 12.7 mph - N/A   Clear
6:53 AM 28.9 °F 18.2 °F 12.9 °F 51% 30.16 in 10.0 mi WNW 13.8 mph 19.6 mph N/A   Clear
7:53 AM 28.9 °F 19.8 °F 14.0 °F 54% 30.18 in 10.0 mi WNW 10.4 mph - N/A   Clear
8:53 AM 32.0 °F 20.8 °F 15.1 °F 50% 30.21 in 10.0 mi WNW 17.3 mph - N/A   Clear
9:53 AM 35.1 °F 25.9 °F 15.1 °F 44% 30.24 in 10.0 mi WNW 13.8 mph 21.9 mph N/A   Clear
10:53 AM 37.9 °F 29.2 °F 15.1 °F 39% 30.24 in 10.0 mi NW 15.0 mph 24.2 mph N/A   Clear
11:53 AM 41.0 °F 32.8 °F 15.1 °F 35% 30.24 in 10.0 mi NNW 16.1 mph - N/A   Clear
12:53 PM 42.1 °F 33.6 °F 14.0 °F 32% 30.24 in 10.0 mi NNW 18.4 mph 26.5 mph N/A   Clear
1:53 PM 42.1 °F 35.2 °F 12.9 °F 31% 30.23 in 10.0 mi NW 12.7 mph - N/A   Clear
2:53 PM 43.0 °F 35.4 °F 12.0 °F 28% 30.24 in 10.0 mi NW 16.1 mph - N/A   Clear
3:53 PM 42.1 °F 36.6 °F 12.0 °F 29% 30.26 in 10.0 mi NW 9.2 mph - N/A   Clear
4:53 PM 37.0 °F 32.4 °F 12.0 °F 36% 30.28 in 10.0 mi NW 5.8 mph - N/A   Clear
5:53 PM 35.1 °F 31.0 °F 12.0 °F 39% 30.29 in 10.0 mi NW 4.6 mph - N/A   Clear
6:53 PM 30.0 °F 23.2 °F 17.1 °F 59% 30.31 in 10.0 mi NW 6.9 mph - N/A   Clear
7:53 PM 28.0 °F 21.7 °F 19.0 °F 69% 30.32 in 10.0 mi WNW 5.8 mph - N/A   Clear
8:53 PM 28.9 °F 21.1 °F 15.1 °F 56% 30.32 in 10.0 mi NW 8.1 mph - N/A   Clear
9:53 PM 33.1 °F 30.0 °F 10.9 °F 40% 30.32 in 10.0 mi NW 3.5 mph - N/A   Clear
10:53 PM 26.1 °F 19.4 °F 18.0 °F 71% 30.32 in 10.0 mi West 5.8 mph - N/A   Clear
11:53 PM 25.0 °F 17.1 °F 16.0 °F 69% 30.31 in 10.0 mi West 6.9 mph - N/A   Clear